User: anonymous   Login
Location: Unspecified
(0.0000°N, 0.0000°E)
Time: 18:08:47
(UTC+01:00)
Language:

ARIANE 5 R/B - Orbit

View from above orbital plane
View from above orbital plane
View from above satellite
View from above satellite

Ground track
Ground track

The orbit data is extracted from the following two-line orbital elements,

1 27387U 02009B   17016.86275148 -.00000014  00000-0  10158-4 0  9999
2 27387  98.4454 329.2151 0031499 228.6068 131.2409 14.35918636779823
Epoch (UTC): 16 January 2017 20:42:21
Eccentricity: 0.0031499
inclination: 98.4454°
perigee height: 749 km
apogee height: 794 km
right ascension of ascending node: 329.2151°
argument of perigee: 228.6068°
revolutions per day: 14.35918636
mean anomaly at epoch: 131.2409°
orbit number at epoch: 77982

The dashed part of the orbit path shows where the satellite is in the earth's shadow,  

DLR